Showing default

TBA - TO BE ASSIGNED, 64492

Orbit data source: Space-Track

TBA - TO BE ASSIGNED named objects are likely recently launched satellites that are being tracked but not necessarily identified.

Not visible in the next 10 days
Identifier
64492, 2025-133W
Orbit
LEO
Last TLE update
12 hours ago
Origin
Manufacturer
SpaceX/Seattle
Mission
Operational spacecraft
Bus & Motor
STARLINK V2MO, Unknown motor
Mass
575 kg wet, ~530 kg dry
Launch date (UTC)
2025-06-23 (1 week ago)
Launch vehicle
FALCON 9
Launch site
Air Force Eastern Test Range (AFETR)
Object type
Payload
Rocket body
Debris
Shape & HBR
Unknown
Radar Cross Section
RCS unknown

Expand to show TLE details & history

TLE from 12 hours ago
0 STARLINK-34522
1 64492U 25133W   25181.91668981 -.01214509  00000-0 -47675-2 0  9999
2 64492  53.1554 219.1761 0000847  81.7427 137.2664 15.88580061  2457
Epoch: 2025-06-30T22:00Z
TLE epoch observation values (Epoch: 2025-06-30T22:00:01.999Z)
Latitude
-30.46282°
Longitude
175.93949°
Altitude
316.001 km
Speed
7.718 km/s
True Right ascension
04h 20m 40s
True Declination
-30° 18' 10"
Sunlit
Object was in daylight at epoch
Visualization orbit readout
Latitude
2.74191°
Longitude
145.39011°
Altitude
310.584 km
Speed
7.723 km/s
Apparent Right ascension
05h 07m 16s
Apparent Declination
-28° 29' 45"
Sunlit
Object is in daylight
Visualization observer readout
Local Sidereal Time
21:32:44
Azimuth
99.854° ESE
Elevation
-35.195°
Doppler factor
1
Orbital elements
Apogee altitude
307.093 km
Perigee altitude
305.96 km
Semi-major axis
6,684.664 km
Eccentricity
0.00008
Inclination
53.1554°
RAAN
219.1761°
Arg. of periapsis
81.7427°
True anomaly
Unknown
Mean anomaly
137.2664°
Eccentric anomaly
Unknown
Mean motion
3.97122 °/min
Orbital period
90.65 mins
BSTAR
-0.0047675
Loading maneuver chart data...
Loading SW <> Apogee altitude chart data...

TBA - TO BE ASSIGNED Visibility

Observer location: undefined°, undefined°

TBA - TO BE ASSIGNED is likely not visible in the next few days
Span
Click to sort rows by Start time (UTC) header in descending order
Start Az.
Max El. time (UTC)
Max El. Az.
Max El.
End time (UTC)
End Az.
|